Regional Weather Roundup
Issued by NWS Newport/Morehead, NC

Current Version | Previous Version | Text Only | Print | Product List | Glossary On
Versions: 1 2 3 4 5 6 7 8 9 10 11 12 13 14 15 16 17 18 19 20 21 22 23 24 25 26 27 28 29 30 31 32 33 34 35 36 37 38 39 40 41 42 43 44 45 46 47 48 49 50
315
ASUS42 KMHX 032213
RWRMHX
WEATHER ROUNDUP FOR EASTERN NORTH CAROLINA
NATIONAL WEATHER SERVICE NEWPORT/MOREHEAD CITY NC
600 PM EDT TUE MAY 03 2016

NOTE: "FAIR" INDICATES FEW OR NO CLOUDS BELOW 12,000 FEET
WITH NO SIGNIFICANT WEATHER AND/OR OBSTRUCTIONS TO VISIBILITY

NCZ015>017-031-032-045>047-102-103-032300-
NORTH COAST

CITY           SKY/WX    TMP DP  RH WIND       PRES   REMARKS
EDENTON        SUNNY     75  67  77 S10       29.75S
ELIZABETH CITY PTSUNNY   72  65  78 S12       29.75R
KITTY HAWK     MOCLDY    76  65  67 S7        29.75S
MANTEO         NOT AVBL

$$

NCZ045>047-081-094-103-104-032300-
CENTRAL COAST

CITY           SKY/WX    TMP DP  RH WIND       PRES   REMARKS
FRISCO         MOSUNNY   70  66  87 SW10      29.80S
SWANQUARTER    NOT AVBL

$$

NCZ095-097-098-100-101-032300-
SOUTHERN COAST

CITY           SKY/WX    TMP DP  RH WIND       PRES   REMARKS
BEAUFORT       MOSUNNY   71  66  84 S9        29.79F
CEDAR ISLAND   NOT AVBL
JACKSONVILLE   CLOUDY    72  66  81 S8        29.77S
PINEY ISLAND   NOT AVBL
WILMINGTON     CLOUDY    74  68  81 S5        29.77S


$$

NCZ011>013-027>030-043-044-078>080-089-090>093-098-032300-
COASTAL PLAIN

CITY           SKY/WX    TMP DP  RH WIND       PRES   REMARKS
AHOSKIE        MOSUNNY   74  66  75 S3        29.73F
CLINTON        CLOUDY    77  71  81 S5        29.75F
ELIZABETHTOWN  CLOUDY    75  72  88 S3        29.75S
GOLDSBORO      MOSUNNY   80  70  71 S9        29.72S
GREENVILLE     CLOUDY    77  66  69 SW6       29.77S
HAVELOCK       PTSUNNY   73  66  78 S12       29.78F
KENANSVILLE    MOSUNNY   74  66  76 CALM      29.76F
KINSTON        SUNNY     77  66  69 S8        29.75F
NEW BERN       CLOUDY    74  66  76 S10       29.77F
RICHLANDS      MOSUNNY   75  69  81 S9        29.76F
ROCKY MOUNT    SUNNY     76  66  71 SW8       29.72F
WASHINGTON     CLOUDY    76  65  67 SW8       29.74F
WHITEVILLE     NOT AVBL

$$

AMZ130-135-150-152-154-156-158-170-250-252-270-ANZ085-086-088-633-658-670-032300-
MARINE OBSERVATIONS

STATION/POSITION TIME  TEMP    WIND        PRES    WAVE   SWELL
                       AIR SEA DIR/SP/G            HT/PER HT/PER
                 (UTC) (F)     (DEG/KT/KT) (MB)    (FT/S) (FT/S)
CHESAPEAKE LIGHT 2200   63     170/ 15/ 16 1007.6
64 E VA BEACH    2150   58 55  170/ 10/ 12 1007.6    5/ 7   5/ 7
DUCK             NOT AVBL
2 E DUCK         2111      59                N/A     2/ 9
OREGON INLET     2100   70 71  200/ 16/ 19 1008.2
13E OREGON INLT  2200      62                N/A     4/ 8   2/ 8
HATTERAS CG      2100   71 69  210/ 12/ 15 1008.7
DIAMOND BUOY     2150   73 72  200/ 19/ 23 1008.5    4/ 8   2/ 8
CAPE LOOKOUT     2200   69     170/ 11/ 12 1008.4
BEAUFORT LAB     2100   70 67  190/ 12/ 14 1008.0
30 SE NEW RVR IN 2125      71                N/A     5/ 7
27 SE WRIGHTSVLE 2108   73 73  190/  8/ 12   N/A
5 SE WRIGHTSVLE  2108   71 70  190/ 10/ 14 1008.8
225 S CAPE HAT   2150   67 74   20/  4/  6 1013.1    4/ 6   3/ 6
41 SE CHARLESTON 2150   75 75  210/ 16/ 17 1008.0    4/ 8   3/ 8

$$




USA.gov is the U.S. government's official web portal to all federal, state and local government web resources and services.